This demonstration page uses our WeatherBlox Daily Observations layout. Learn more.

36.17497, -115.13722

Hourly Observations for October 12, 2019

Temp ( °F °C ) Dew Point ( °F °C ) Humidity (%) Winds ( mph kmh ) Pressure ( in mb ) Visibility ( mi km ) Precip ( " mm )
12:53 am 00:53 Clear 52 11.1 10 -12.2 18 18 W 5 7 30.05 1018 10 16.0934 0 0
1:53 am 01:53 Clear 53 11.7 8 -13.3 16 16 WNW 7 11 30.04 1017 10 16.0934 0 0
2:53 am 02:53 Clear 52 11.1 4 -15.6 14 14 NW 9 15 30.03 1017 10 16.0934 0 0
3:53 am 03:53 Clear 51 10.6 6 -14.4 16 16 W 8 13 30.03 1017 10 16.0934 0 0
4:53 am 04:53 Clear 51 10.6 -1 -18.3 11 11 NW 8 13 30.02 1017 10 16.0934 0 0
5:53 am 05:53 Clear 51 10.6 0 -17.8 12 12 W 5 7 30.03 1017 10 16.0934 0 0
6:53 am 06:53 Sunny 50 10 1 -17.2 13 13 WNW 10 17 30.04 1017 10 16.0934 0 0
7:53 am 07:53 Sunny 52 11.1 7 -13.9 16 16 WNW 6 9 30.05 1018 10 16.0934 0 0
8:53 am 08:53 Sunny 60 15.6 0 -17.8 9 9 VRB 3 6 30.06 1018 10 16.0934 0 0
9:53 am 09:53 Sunny 64 17.8 2 -16.7 8 8 Calm 30.05 1018 10 16.0934 0 0
10:53 am 10:53 Sunny 66 18.9 2 -16.7 8 8 SSE 5 7 30.05 1018 10 16.0934 0 0
11:53 am 11:53 Sunny 68 20 2 -16.7 7 7 SSE 5 7 30.04 1017 10 16.0934 0 0
12:53 pm 12:53 Sunny 71 21.7 0 -17.8 6 6 VRB 3 6 30.01 1016 10 16.0934 0 0
1:53 pm 13:53 Sunny 72 22.2 -1 -18.3 5 5 SSW 3 6 29.98 1015 10 16.0934 0 0
2:53 pm 14:53 Sunny 74 23.3 -1 -18.3 5 5 NNE 3 6 29.96 1015 10 16.0934 0 0
3:53 pm 15:53 Sunny 75 23.9 -1 -18.3 5 5 SE 6 9 29.94 1014 10 16.0934 0 0
4:53 pm 16:53 Sunny 75 23.9 -2 -18.9 5 5 SSE 5 7 29.93 1014 10 16.0934 0 0
5:53 pm 17:53 Sunny 75 23.9 -1 -18.3 5 5 Calm 29.92 1013 10 16.0934 0 0
6:53 pm 18:53 Clear 71 21.7 6 -14.4 8 8 Calm 29.92 1013 10 16.0934 0 0
7:53 pm 19:53 Clear 65 18.3 11 -11.7 12 12 WNW 6 9 29.93 1014 10 16.0934 0 0
8:53 pm 20:53 Clear 61 16.1 12 -11.1 14 14 NW 7 11 29.93 1014 10 16.0934 0 0
9:53 pm 21:53 Clear 59 15 11 -11.7 15 15 NNW 6 9 29.94 1014 10 16.0934 0 0
10:53 pm 22:53 Clear 57 13.9 11 -11.7 16 16 NW 5 7 29.95 1014 10 16.0934 0 0
11:53 pm 23:53 Clear 56 13.3 12 -11.1 17 17 NW 7 11 29.94 1014 10 16.0934 0 0

Powered by AerisWeather